Location: ???????
(55.7027°N, 37.3832°E)
Time: 20:54:05
(UTC+00:00)

Cosmos 2016 Rocket - Pass Details

Date: 14 April 2026
Orbit: 945 x 1001 km, 83.0° (Epoch: 16 May)

Event Time Altitude Azimuth Distance (km) Brightness Sun altitude
Exits shadow 22:10:48 43° 232° (SW) 1,382 4.4 -24.1°
Maximum altitude 22:12:43 59° 287° (WNW) 1,145 4.3 -24.0°
Drops below altitude 10° 22:19:01 10° 7° (N) 2,770 7.5 -23.9°
Sets 22:21:36 0° 11° (NNE) 3,716 8.5 -23.8°
